GW0648 Weather Reports


time (UTC)temp
C
wind
direction
speed
KPH
gust
KPH
rain 1hr
cm
rain 24hr
cm
rain mn
cm
humidity
%
barometer
mb
20260503204340 18 119 0.0 0.0 0.00 0.00 0.00 35 1013.4
20260503203842 17 120 0.0 0.0 0.00 0.00 0.00 38 1013.8
20260503203411 17 120 0.0 0.0 0.00 0.00 0.00 37 1013.8
20260503202842 17 120 0.0 0.0 0.00 0.00 0.00 36 1013.8
20260503202346 17 120 0.0 0.0 0.00 0.00 0.00 34 1013.9
20260503201839 17 109 0.0 0.0 0.00 0.00 0.00 35 1013.9
20260503201348 18 80 0.0 0.0 0.00 0.00 0.00 35 1013.9
20260503200842 18 81 0.0 0.0 0.00 0.00 0.00 34 1014.0
20260503200354 18 81 0.0 0.0 0.00 0.00 0.00 36 1014.0
20260503195842 18 330 0.0 0.0 0.00 0.00 0.00 30 1014.0
20260503195333 18 298 0.0 0.0 0.00 0.00 0.00 31 1014.3
20260503194840 17 298 0.0 0.0 0.00 0.00 0.00 32 1014.3
20260503193841 18 273 0.0 0.0 0.00 0.00 0.00 33 1014.6
20260503193343 18 273 0.0 0.0 0.00 0.00 0.00 35 1014.6
20260503192913 18 273 0.0 0.0 0.00 0.00 0.00 37 1014.6
20260503192339 18 273 0.0 0.0 0.00 0.00 0.00 35 1014.9
20260503191848 18 259 0.0 0.0 0.00 0.00 0.00 32 1014.9
20260503191356 18 166 0.0 0.0 0.00 0.00 0.00 35 1014.9
20260503190828 17 165 0.0 0.0 0.00 0.00 0.00 33 1015.0
20260503190325 17 164 0.0 0.0 0.00 0.00 0.00 34 1015.0
20260503185833 18 298 0.0 0.0 0.00 0.00 0.00 32 1015.0
20260503185355 17 63 0.0 0.0 0.00 0.00 0.00 36 1015.0
20260503184921 17 60 0.0 0.0 0.00 0.00 0.00 36 1015.0
20260503184421 17 59 0.0 0.0 0.00 0.00 0.00 38 1015.0
20260503183835 17 311 0.0 0.0 0.00 0.00 0.00 38 1015.4
20260503183326 17 311 0.0 0.0 0.00 0.00 0.00 35 1015.4
20260503182855 17 311 0.0 0.0 0.00 0.00 0.00 34 1015.4
20260503182333 17 80 0.0 0.0 0.00 0.00 0.00 38 1015.5
20260503181828 16 81 0.0 0.0 0.00 0.00 0.00 41 1015.5
20260503181358 16 81 0.0 0.0 0.00 0.00 0.00 38 1015.5
20260503180839 16 81 0.0 0.0 0.00 0.00 0.00 38 1015.6
20260503180407 16 78 0.0 0.0 0.00 0.00 0.00 36 1015.6
20260503175909 16 78 0.0 0.0 0.00 0.00 0.00 37 1015.6
20260503175419 16 78 0.0 0.0 0.00 0.00 0.00 38 1016.0
20260503174847 16 102 0.0 0.0 0.00 0.00 0.00 38 1016.0
20260503174353 16 113 0.0 0.0 0.00 0.00 0.00 38 1016.0
20260503173902 15 113 0.0 0.0 0.00 0.00 0.00 38 1016.1
20260503173332 15 113 0.0 0.0 0.00 0.00 0.00 44 1016.1
20260503172858 15 111 0.0 0.0 0.00 0.00 0.00 40 1016.1
20260503172325 15 111 0.0 0.0 0.00 0.00 0.00 43 1016.6
20260503171857 15 111 0.0 0.0 0.00 0.00 0.00 41 1016.6
20260503171335 15 210 0.0 0.0 0.00 0.00 0.00 40 1016.6
20260503170900 15 214 0.0 0.0 0.00 0.00 0.00 41 1016.7
20260503170336 15 217 0.0 0.0 0.00 0.00 0.00 42 1016.7
20260503150838 11 57 0.0 0.0 0.00 0.00 0.00 51 1017.7
20260503150342 11 57 0.0 0.0 0.00 0.00 0.00 51 1017.7
20260503131350 7 25 0.0 0.0 0.00 0.00 0.00 75 1017.6
20260503130836 7 24 0.0 0.0 0.00 0.00 0.00 76 1017.5
20260503130348 6 24 0.0 0.0 0.00 0.00 0.00 80 1017.5
20260503110340 1 24 0.0 0.0 0.00 0.00 0.00 92 1016.6
20260503090343 2 24 0.0 0.0 0.00 0.00 0.00 91 1015.1
20260503081352 2 24 0.0 0.0 0.00 0.00 0.00 90 1014.9
20260503080845 2 24 0.0 0.0 0.00 0.00 0.00 89 1014.4
20260503080350 2 24 0.0 0.0 0.00 0.00 0.00 89 1014.4
20260503072854 3 24 0.0 0.0 0.00 0.00 0.00 88 1014.4
20260503072332 3 24 0.0 0.0 0.00 0.00 0.00 87 1014.3
20260503071854 3 24 0.0 0.0 0.00 0.00 0.00 88 1014.3
20260503071330 3 24 0.0 0.0 0.00 0.00 0.00 87 1014.3
20260503070855 3 24 0.0 0.0 0.00 0.00 0.00 86 1013.9
20260503070359 3 24 0.0 0.0 0.00 0.00 0.00 86 1013.9
20260503060338 3 24 0.0 0.0 0.00 0.00 0.00 85 1013.9
20260503054839 4 24 0.0 0.0 0.00 0.00 0.00 83 1013.9
20260503054326 4 24 0.0 0.0 0.00 0.00 0.00 83 1013.9
20260503053911 4 24 0.0 0.0 0.00 0.00 0.00 83 1014.2
20260503053342 4 24 0.0 0.0 0.00 0.00 0.00 82 1014.2
20260503052854 4 24 0.0 0.0 0.00 0.00 0.00 83 1014.2
20260503052359 4 24 0.0 0.0 0.00 0.00 0.00 82 1014.0
20260503051853 4 24 0.0 0.0 0.00 0.00 0.00 81 1014.0
20260503051333 4 24 0.0 0.0 0.00 0.00 0.00 81 1014.0
20260503050900 5 24 0.0 0.0 0.00 0.00 0.00 81 1013.9
20260503050331 5 24 0.0 0.0 0.00 0.00 0.00 81 1013.9
20260503045850 5 24 0.0 0.0 0.00 0.00 0.00 80 1013.9
20260503045348 5 24 0.0 0.0 0.00 0.00 0.00 80 1013.9
20260503044831 5 24 0.0 0.0 0.00 0.00 0.00 80 1013.9
20260503044417 5 24 0.0 0.0 0.00 0.00 0.00 79 1013.9
20260503043844 5 24 0.0 0.0 0.00 0.00 0.00 80 1013.9
20260503043350 5 24 0.0 0.0 0.00 0.00 0.00 79 1013.9
20260503042845 5 24 0.0 0.0 0.00 0.00 0.00 79 1013.9
20260503042349 5 24 0.0 0.0 0.00 0.00 0.00 79 1013.7
20260503041843 5 24 0.0 0.0 0.00 0.00 0.00 78 1013.7
20260503041335 5 24 0.0 0.0 0.00 0.00 0.00 77 1013.7
20260503040841 6 24 0.0 0.0 0.00 0.00 0.00 76 1013.3
20260503040356 6 24 0.0 0.0 0.00 0.00 0.00 76 1013.3
20260503035849 6 24 0.0 0.0 0.00 0.00 0.00 76 1013.3
20260503035334 6 24 0.0 0.0 0.00 0.00 0.00 75 1013.3
20260503034837 6 24 0.0 0.0 0.00 0.00 0.00 74 1013.3
20260503034339 6 24 0.0 0.0 0.00 0.00 0.00 73 1013.3
20260503033829 6 24 0.0 0.0 0.00 0.00 0.00 73 1013.2
20260503033338 6 24 0.0 0.0 0.00 0.00 0.00 73 1013.2
20260503032834 6 24 0.0 0.0 0.00 0.00 0.00 73 1013.2
20260503032335 6 24 0.0 0.0 0.00 0.00 0.00 72 1013.1
20260503031829 6 24 0.0 0.0 0.00 0.00 0.00 69 1013.1
20260503031334 6 24 0.0 0.0 0.00 0.00 0.00 69 1013.1
20260503030839 6 24 0.0 0.0 0.00 0.00 0.00 70 1013.2
20260503030409 7 24 0.0 0.0 0.00 0.00 0.00 68 1013.2
20260503025857 7 24 0.0 0.0 0.00 0.00 0.00 67 1013.2
20260503025342 7 24 0.0 0.0 0.00 0.00 0.00 65 1012.8
20260503024907 7 24 0.0 0.0 0.00 0.00 0.00 64 1012.8
20260503024338 7 24 0.0 0.0 0.00 0.00 0.00 61 1012.8
20260503023844 8 24 0.0 0.0 0.00 0.00 0.00 61 1012.7
20260503023341 8 24 0.0 0.0 0.00 0.00 0.00 64 1012.7
20260503022850 8 24 0.0 0.0 0.00 0.00 0.00 60 1012.7
20260503022334 8 24 0.0 0.0 0.00 0.00 0.00 58 1012.7
20260503021841 8 24 0.0 0.0 0.00 0.00 0.00 57 1012.7
20260503021408 8 24 0.0 0.0 0.00 0.00 0.00 56 1012.7
20260503020837 8 24 0.0 0.0 0.00 0.00 0.00 55 1012.6
20260503020344 9 24 0.0 0.0 0.00 0.00 0.00 55 1012.6
20260503015907 9 24 0.0 0.0 0.00 0.00 0.00 53 1012.6
20260503015337 10 25 0.0 0.0 0.00 0.00 0.00 54 1012.6
20260503014840 10 24 0.0 0.0 0.00 0.00 0.00 51 1012.6
20260503014334 10 24 0.0 0.0 0.00 0.00 0.00 51 1012.6
20260503013838 10 24 0.0 0.0 0.00 0.00 0.00 50 1012.2
20260503013344 10 24 0.0 0.0 0.00 0.00 0.00 48 1012.2
20260503012835 10 24 0.0 0.0 0.00 0.00 0.00 48 1012.2
20260503012357 10 24 0.0 0.0 0.00 0.00 0.00 49 1012.0
20260503011834 10 24 0.0 0.0 0.00 0.00 0.00 47 1012.0
20260503011341 11 24 0.0 0.0 0.00 0.00 0.00 47 1012.0
20260503010837 11 24 0.0 0.0 0.00 0.00 0.00 48 1011.7
20260503010344 11 24 0.0 0.0 0.00 0.00 0.00 47 1011.7
20260503005835 11 24 0.0 0.0 0.00 0.00 0.00 46 1011.7
20260503005344 11 24 0.0 0.0 0.00 0.00 0.00 45 1011.6
20260503004857 11 24 0.0 0.0 0.00 0.00 0.00 45 1011.6
20260503004419 11 24 0.0 0.0 0.00 0.00 0.00 45 1011.6
20260503003854 12 24 0.0 0.0 0.00 0.00 0.00 44 1011.1
20260503003357 12 24 0.0 0.0 0.00 0.00 0.00 43 1011.1
20260503002844 12 24 0.0 0.0 0.00 0.00 0.00 43 1011.1
20260503002335 12 24 0.0 0.0 0.00 0.00 0.00 41 1011.0
20260503001840 12 24 0.0 0.0 0.00 0.00 0.00 40 1011.0
20260503001334 12 24 0.0 0.0 0.00 0.00 0.00 38 1011.0
20260503000836 13 24 0.0 0.0 0.00 0.00 0.00 38 1010.6
20260503000404 13 344 0.0 0.0 0.00 0.00 0.00 36 1010.6
20260502235910 13 133 0.0 0.0 0.00 0.00 0.00 35 1010.6
20260502235342 13 178 0.0 0.0 0.00 0.00 0.00 37 1010.4
20260502234852 13 115 0.0 0.0 0.00 0.00 0.00 36 1010.4
20260502234415 13 115 0.0 0.0 0.00 0.00 0.00 38 1010.4
20260502233843 13 351 0.0 0.0 0.00 0.00 0.00 36 1010.2
20260502233329 13 331 0.0 0.0 0.00 0.00 0.00 35 1010.2
20260502232842 13 313 0.0 0.0 0.00 0.00 0.00 35 1010.2
20260502232335 13 162 0.0 0.0 0.00 0.00 0.00 36 1010.0
20260502231823 13 159 0.0 0.0 0.00 0.00 0.00 36 1010.0
20260502231334 13 65 0.0 0.0 0.00 0.00 0.00 38 1010.0
20260502230917 13 65 0.0 0.0 0.00 0.00 0.00 38 1010.0
20260502230345 13 65 0.0 0.0 0.00 0.00 0.00 39 1010.0
20260502225828 13 75 0.0 0.0 0.00 0.00 0.00 36 1010.0
20260502225400 13 55 0.0 0.0 0.00 0.00 0.00 38 1010.0
20260502224832 13 55 0.0 0.0 0.00 0.00 0.00 37 1010.0
20260502224353 13 102 0.0 0.0 0.00 0.00 0.00 38 1010.0
20260502223829 13 100 0.0 0.0 0.00 0.00 0.00 37 1010.0
20260502223335 13 60 0.0 0.0 0.00 0.00 0.00 36 1010.0
20260502222831 14 58 0.0 0.0 0.00 0.00 0.00 36 1010.0
20260502222343 14 58 0.0 0.0 0.00 0.00 0.00 37 1009.9
20260502221835 14 57 0.0 0.0 0.00 0.00 0.00 35 1009.9
20260502221348 14 73 0.0 0.0 0.00 0.00 0.00 35 1009.9
20260502220854 15 73 0.0 0.0 0.00 0.00 0.00 34 1009.5
20260502220328 15 79 0.0 0.0 0.00 0.00 0.00 35 1009.5
20260502215858 15 79 0.0 0.0 0.00 0.00 0.00 35 1009.5
20260502215333 15 91 0.0 0.0 0.00 0.00 0.00 36 1009.4
20260502214902 15 182 0.0 0.0 0.00 0.00 0.00 37 1009.4
20260502214412 15 182 0.0 0.0 0.00 0.00 0.00 36 1009.4
20260502213842 14 73 0.0 0.0 0.00 0.00 0.00 35 1009.1
20260502213354 14 281 0.0 0.0 0.00 0.00 0.00 36 1009.1
20260502212840 14 271 0.0 0.0 0.00 0.00 0.00 34 1009.1
20260502212410 14 71 0.0 0.0 0.00 0.00 0.00 35 1009.0
20260502211844 14 38 0.0 0.0 0.00 0.00 0.00 33 1009.0
20260502211354 14 78 0.0 0.0 0.00 0.00 0.00 34 1009.0
20260502210851 15 79 0.0 0.0 0.00 0.00 0.00 34 1008.8
20260502210356 15 66 0.0 0.0 0.00 0.00 0.00 34 1008.8
20260502205846 15 67 0.0 0.0 0.00 0.00 0.00 35 1008.8
20260502205337 15 336 0.0 0.0 0.00 0.00 0.00 36 1008.8
20260502204848 15 76 0.0 0.0 0.00 0.00 0.00 34 1008.8